Tracking 35331 objects as of 14-Sep-2026
HD Live streaming from Space Station
objects crossing your sky now

COSMOS 1813 DEB


COSMOS 1813 DEB is no longer on orbit


NORAD ID: 18236
Int'l Code: 1987-004GQ
Launch date: January 15, 1987
Source: Commonwealth of Independent States (former USSR) (CIS)
Launch site: PLESETSK MISSILE AND SPACE COMPLEX (PKMTR)
Decay date: 1987-11-04

Note: This is SATELLITE DEBRIS
Your satellite tracking list
Your tracking list is empty




NASA's NSSDC Master Catalog

Two Line Element Set (TLE):
1 18236U 87004 GQ 87308.02324089  .05146554 +89000-5 +74115-3 0  9996
2 18236 072.7883 293.1463 0008629 285.8710 074.1765 16.34481565043865
Source of the keplerian elements: AFSPC